Weather in Veenendaal

Netherlands     52°01′23″N   5°32′18″E
temp.,
°C
wind,
m/s
gust,
m/s
humid.,
%
clouds,
%
prec.,
mm/h
press.,
hPa
HPBL,
m
23 april, fri
fri2323:00+3n35875 0.0 102882
02:00+2nne11915 0.0 102910
05:00+1nnw11925 0.0 102910
08:00+4nnw12835 0.0 1030101
11:00+9n33575 0.0 1030926
14:00+12n44455 0.0 10291262
17:00+12n54475 0.0 1028976
20:00+8n477063 0.0 1028218
24 april, sat
sat2423:00+5nne498260 0.0 1029196
02:00+3ne3590100 0.0 102976
05:00+2ne3488100 0.0 102979
08:00+4ne2582100 0.0 1029156
11:00+9nne4562100 0.0 1028858
14:00+12n4554100 0.0 10281375
17:00+12n6654100 0.0 10271460
20:00+8nne6965100 0.0 1027525
25 april, sun
sun2523:00+4nne49790 0.0 1029313
02:00+1nne38905 0.0 1029195
05:000nne36935 0.0 1029134
08:00+3ne48815 0.0 1029272
11:00+8nne45555 0.0 1028967
14:00+12nne4545100 0.0 10271257
17:00+12n564811 0.0 10261353
20:00+9n596421 0.0 1025373
26 april, mon
mon2623:00+3nne48830 0.0 1026218
02:00+1nne36940 0.0 1025139
05:000nne35952 0.0 102497
08:00+3ne36835 0.0 1023214
11:00+9ne45535 0.0 1022933
14:00+12ne4542100 0.0 10191351
17:00+12ne4548100 0.0 10171447
20:00+9ne4766100 0.0 1016213
27 april, tue
tue2723:00+5ne4975100 0.0 1015251
02:00+4ne4882100 0.0 1013198
05:00+3ne3884100 0.0 1011171
08:00+5ne3776100 0.0 1010201
11:00+10ne4559100 0.0 1008675
14:00+14ene444789 0.0 10061504
17:00+14ene444473 0.0 10051953
20:00+11ne4859100 0.0 1005319